Weather History for Kirksville, MO

Change the Weather History Date:

Monday, July 15, 2013

  Actual Average Record
Temperature  
Mean Temperature 77 °F 75 °F  
Max Temperature 90 °F 85 °F 113 °F (1936)
Min Temperature 63 °F 65 °F 50 °F (1930)
Degree Days  
Heating Degree Days 0 0  
Month to date heating degree days 0 0  
Since 1 June heating degree days 36 16  
Since 1 July heating degree days 0 0  
Cooling Degree Days 12 10  
Month to date cooling degree days 127 144  
Year to date cooling degree days 402 398  
Since 1 June cooling degree days 334 336  
Growing Degree Days 27 (Base 50)    
Moisture  
Dew Point 68 °F    
Average Humidity 76    
Maximum Humidity 100    
Minimum Humidity 52    
Precipitation  
Precipitation 0.00 in 0.16 in 3.37 in (1958)
Month to date precipitation T 2.08  
Year to date precipitation 27.91 21.01  
Sea Level Pressure  
Sea Level Pressure 30.20 in    
Wind  
Wind Speed 6 mph (ESE)    
Max Wind Speed 21 mph    
Max Gust Speed 24 mph    
Visibility 8 miles    
Events      
T = Trace of Precipitation, MM = Missing Value Source: NWS Daily Summary

Daily Weather History Graph

Daily Weather History Graph

Search for Another Location

Airport:

Trip Planner

Search our weather history database for the weather conditions in past years. The results will help you decide how hot, cold, wet, or windy it might be!

Date:

Astronomy

Jul. 15, 2013 Rise Set
Actual Time 5:53 AM CDT 8:38 PM CDT
Civil Twilight 5:22 AM CDT 9:09 PM CDT
Nautical Twilight 4:42 AM CDT 9:49 PM CDT
Astronomical Twilight 3:56 AM CDT 10:35 PM CDT
Moon 1:14 PM CDT (7/15) No Moon Set
Length of Visible Light 15h 47m
Length of Day
14h 44m
Waxing Crescent, 45% of the Moon is Illuminated
Jul 15
Waxing Crescent
Jul 15
First Quarter
Jul 22
Full
Jul 29
Last Quarter
Aug 6
New

Hourly Weather History & Observations

Time (CDT) Temp. Heat Index Dew Point Humidity Pressure Visibility Wind Dir Wind Speed Gust Speed Precip Events Conditions
12:55 AM 68.0 °F - 64.0 °F 87% 30.17 in 8.0 mi NE 4.6 mph - N/A   Clear
1:55 AM 68.0 °F - 64.0 °F 87% 30.17 in 7.0 mi NNE 3.5 mph - N/A   Clear
2:55 AM 64.9 °F - 63.0 °F 93% 30.18 in 6.0 mi Calm Calm - N/A   Clear
3:55 AM 64.9 °F - 64.0 °F 97% 30.18 in 5.0 mi Calm Calm - N/A   Clear
4:55 AM 64.9 °F - 64.0 °F 97% 30.19 in 4.0 mi NNE 3.5 mph - N/A   Partly Cloudy
5:55 AM 64.0 °F - 63.0 °F 96% 30.20 in 2.5 mi Calm Calm - N/A   Clear
6:08 AM 66.2 °F - 64.4 °F 94% 30.21 in 4.0 mi Calm Calm - N/A   Clear
6:32 AM 64.4 °F - 64.4 °F 100% 30.22 in 2.5 mi Calm Calm - N/A   Clear
6:42 AM 66.2 °F - 64.4 °F 94% 30.22 in 3.0 mi Calm Calm - N/A   Clear
6:55 AM 66.9 °F - 64.9 °F 93% 30.22 in 4.0 mi NE 3.5 mph - N/A   Scattered Clouds
7:55 AM 71.1 °F - 68.0 °F 90% 30.23 in 5.0 mi ENE 5.8 mph - N/A   Mostly Cloudy
8:55 AM 75.0 °F - 69.1 °F 82% 30.24 in 9.0 mi ESE 6.9 mph - N/A   Scattered Clouds
9:55 AM 82.0 °F 86.3 °F 71.1 °F 69% 30.23 in 10.0 mi ESE 4.6 mph - N/A   Clear
10:55 AM 82.9 °F 87.5 °F 71.1 °F 67% 30.24 in 10.0 mi South 4.6 mph - N/A   Scattered Clouds
11:55 AM 84.0 °F 87.8 °F 69.1 °F 61% 30.24 in 10.0 mi SE 8.1 mph - N/A   Mostly Cloudy
12:55 PM 87.1 °F 92.0 °F 70.0 °F 57% 30.22 in 10.0 mi ESE 9.2 mph - N/A   Mostly Cloudy
1:55 PM 87.1 °F 91.3 °F 69.1 °F 55% 30.20 in 10.0 mi ESE 10.4 mph - N/A   Partly Cloudy
2:55 PM 90.0 °F 95.4 °F 70.0 °F 52% 30.19 in 10.0 mi SE 15.0 mph 24.2 mph N/A   Mostly Cloudy
3:55 PM 89.1 °F 93.7 °F 69.1 °F 52% 30.18 in 10.0 mi SE 8.1 mph - N/A   Clear
4:55 PM 89.1 °F 94.1 °F 70.0 °F 53% 30.17 in 10.0 mi SE 11.5 mph - N/A   Clear
5:55 PM 86.0 °F 90.7 °F 70.0 °F 59% 30.17 in 10.0 mi East 9.2 mph - N/A   Partly Cloudy
6:55 PM 84.0 °F 89.0 °F 71.1 °F 65% 30.17 in 10.0 mi SE 11.5 mph - N/A   Clear
7:55 PM 82.0 °F 85.9 °F 70.0 °F 67% 30.17 in 10.0 mi SE 8.1 mph - N/A   Clear
8:55 PM 80.1 °F 83.2 °F 70.0 °F 71% 30.19 in 10.0 mi ESE 5.8 mph - N/A   Partly Cloudy
9:55 PM 77.0 °F - 70.0 °F 79% 30.20 in 10.0 mi East 3.5 mph - N/A   Clear
10:55 PM 75.9 °F - 70.0 °F 82% 30.22 in 10.0 mi SE 3.5 mph - N/A   Clear
11:55 PM 73.9 °F - 70.0 °F 87% 30.23 in 10.0 mi SE 4.6 mph - N/A   Clear